Bradford, PA

12:16 AM EST on November 18, 2017 (GMT -0500)
Bradford Regional

Weather History for KBFD - July, 2013

Change the Weather History Date:

Tuesday, July 30, 2013

  Actual Average Record
Temperature  
Mean Temperature 61 °F 65 °F  
Max Temperature 73 °F 77 °F 88 °F (1999)
Min Temperature 48 °F 53 °F 40 °F (1971)
Degree Days  
Heating Degree Days 4 0  
Month to date heating degree days 48 1  
Since 1 June heating degree days 152 146  
Since 1 July heating degree days 48 1  
Cooling Degree Days 0 2  
Month to date cooling degree days 148 68  
Year to date cooling degree days 241 118  
Since 1 June cooling degree days 198 108  
Growing Degree Days 10 (Base 50)    
Moisture  
Dew Point 51 °F    
Average Humidity 71    
Maximum Humidity 93    
Minimum Humidity 49    
Precipitation  
Precipitation 0.00 in 0.13 in 0.81 in (1993)
Month to date precipitation 2.62 4.05  
Year to date precipitation 18.26 25.70  
Sea Level Pressure  
Sea Level Pressure 30.22 in    
Wind  
Wind Speed 3 mph (WNW)    
Max Wind Speed 13 mph    
Max Gust Speed 16 mph    
Visibility 9 miles    
Events      
T = Trace of Precipitation, MM = Missing Value Source: NWS Daily Summary

Daily Weather History Graph

Daily Weather History Graph

Search for Another Location

Airport or City:

Trip Planner

Search our weather history database for the weather conditions in past years. The results will help you decide how hot, cold, wet, or windy it might be!

Date:

Astronomy

Jul. 30, 2013 Rise Set
Actual Time 6:06 AM EDT 8:34 PM EDT
Civil Twilight 5:35 AM EDT 9:06 PM EDT
Nautical Twilight 4:55 AM EDT 9:45 PM EDT
Astronomical Twilight 4:11 AM EDT 10:28 PM EDT
Moon 12:24 AM EDT (7/30) 2:52 PM EDT (7/30)
Length of Visible Light 15h 30m
Length of Day
14h 27m
Last Quarter, 41% of the Moon is Illuminated
Jul 30
Last Quarter
Aug 6
New
Aug 14
First Quarter
Aug 20
Full
Aug 28
Last Quarter

Hourly Weather History & Observations

Time (EDT) Temp. Dew Point Humidity Pressure Visibility Wind Dir Wind Speed Gust Speed Precip Events Conditions
12:53 AM 52.0 °F 48.9 °F 89% 30.20 in 10.0 mi Calm Calm - N/A   Partly Cloudy
1:53 AM 51.1 °F 48.0 °F 89% 30.20 in 10.0 mi Calm Calm - N/A   Partly Cloudy
2:20 AM 48.9 °F 46.9 °F 93% 30.21 in 1.8 mi Calm Calm - N/A   Clear
2:27 AM 48.9 °F 46.9 °F 93% 30.21 in 4.0 mi Calm Calm - N/A   Partly Cloudy
2:53 AM 48.9 °F 46.0 °F 90% 30.20 in 6.0 mi Calm Calm - N/A   Partly Cloudy
3:34 AM 50.0 °F 46.9 °F 89% 30.22 in 9.0 mi Calm Calm - N/A   Mostly Cloudy
3:53 AM 50.0 °F 48.0 °F 93% 30.21 in 10.0 mi Calm Calm - N/A   Overcast
4:05 AM 51.1 °F 48.0 °F 89% 30.22 in 10.0 mi Calm Calm - N/A   Overcast
4:34 AM 52.0 °F 48.9 °F 89% 30.22 in 10.0 mi Calm Calm - N/A   Mostly Cloudy
4:53 AM 51.1 °F 48.9 °F 92% 30.21 in 10.0 mi Calm Calm - N/A   Mostly Cloudy
5:01 AM 52.0 °F 48.9 °F 89% 30.22 in 10.0 mi Calm Calm - N/A   Overcast
5:28 AM 52.0 °F 48.9 °F 89% 30.23 in 9.0 mi Calm Calm - N/A   Overcast
5:37 AM 52.0 °F 48.9 °F 89% 30.23 in 9.0 mi Calm Calm - N/A   Overcast
5:53 AM 50.0 °F 48.0 °F 93% 30.22 in 9.0 mi Calm Calm - N/A   Scattered Clouds
6:53 AM 50.0 °F 48.0 °F 93% 30.23 in 8.0 mi Calm Calm - N/A   Mostly Cloudy
7:53 AM 57.0 °F 53.1 °F 87% 30.24 in 10.0 mi West 5.8 mph - N/A   Scattered Clouds
8:53 AM 61.0 °F 54.0 °F 78% 30.23 in 10.0 mi WNW 4.6 mph - N/A   Scattered Clouds
9:16 AM 63.0 °F 52.0 °F 67% 30.25 in 10.0 mi West 5.8 mph - N/A   Mostly Cloudy
9:33 AM 64.0 °F 52.0 °F 65% 30.26 in 10.0 mi WNW 6.9 mph - N/A   Scattered Clouds
9:53 AM 64.0 °F 52.0 °F 65% 30.24 in 10.0 mi NW 8.1 mph - N/A   Scattered Clouds
10:31 AM 64.0 °F 51.1 °F 63% 30.26 in 10.0 mi West 6.9 mph - N/A   Mostly Cloudy
10:40 AM 66.0 °F 53.1 °F 63% 30.26 in 10.0 mi Variable 4.6 mph - N/A   Mostly Cloudy
10:53 AM 64.9 °F 51.1 °F 61% 30.24 in 10.0 mi West 8.1 mph - N/A   Mostly Cloudy
11:53 AM 66.0 °F 52.0 °F 60% 30.24 in 10.0 mi West 4.6 mph - N/A   Overcast
12:53 PM 66.9 °F 53.1 °F 61% 30.23 in 10.0 mi West 8.1 mph - N/A   Overcast
1:53 PM 69.1 °F 52.0 °F 54% 30.22 in 10.0 mi NNW 4.6 mph - N/A   Overcast
2:53 PM 69.1 °F 51.1 °F 53% 30.21 in 10.0 mi West 6.9 mph - N/A   Mostly Cloudy
3:53 PM 71.1 °F 51.1 °F 49% 30.20 in 10.0 mi Calm Calm - N/A   Mostly Cloudy
4:53 PM 72.0 °F 53.1 °F 51% 30.19 in 10.0 mi Variable 5.8 mph - N/A   Mostly Cloudy
5:53 PM 71.1 °F 53.1 °F 53% 30.19 in 10.0 mi NW 8.1 mph - N/A   Scattered Clouds
6:53 PM 70.0 °F 53.1 °F 55% 30.19 in 10.0 mi Variable 5.8 mph - N/A   Partly Cloudy
7:53 PM 66.9 °F 54.0 °F 63% 30.18 in 10.0 mi North 3.5 mph - N/A   Clear
8:53 PM 62.1 °F 54.0 °F 75% 30.18 in 10.0 mi Calm Calm - N/A   Clear
9:53 PM 57.9 °F 54.0 °F 87% 30.20 in 10.0 mi Calm Calm - N/A   Scattered Clouds
10:53 PM 55.0 °F 51.1 °F 86% 30.21 in 10.0 mi Calm Calm - N/A   Clear
11:53 PM 53.1 °F 51.1 °F 93% 30.21 in 8.0 mi Calm Calm - N/A   Clear